Time,TemperatureF,DewpointF,PressureIn,WindDirection,WindDirectionDegrees,WindSpeedMPH,WindSpeedGustMPH,Humidity,HourlyPrecipIn,Conditions,Clouds,dailyrainin,SoftwareType,DateUTC
2013-01-27 00:02:00,30.1,27.5,30.03,North,360,0.0,2.0,90,0.00,,,0.00,Wunderground v.1.15,2013-01-27 08:02:00,
2013-01-27 00:03:00,30.1,27.5,30.03,North,360,0.0,1.0,90,0.00,,,0.00,Wunderground v.1.15,2013-01-27 08:03:00,
2013-01-27 00:04:00,30.1,27.5,30.03,North,360,0.0,1.0,90,0.00,,,0.00,Wunderground v.1.15,2013-01-27 08:04:00,
2013-01-27 00:09:00,30.1,27.8,30.03,North,360,0.0,1.0,91,0.00,,,0.00,Wunderground v.1.15,2013-01-27 08:09:00,
2013-01-27 00:10:00,30.1,27.8,30.03,North,360,0.0,1.0,91,0.00,,,0.00,Wunderground v.1.15,2013-01-27 08:10:00,
2013-01-27 00:12:00,30.1,27.8,30.03,North,360,0.0,1.0,91,0.00,,,0.00,Wunderground v.1.15,2013-01-27 08:12:00,
2013-01-27 00:14:00,30.1,27.8,30.03,North,360,0.0,0.0,91,0.00,,,0.00,Wunderground v.1.15,2013-01-27 08:14:00,
2013-01-27 00:15:00,30.2,27.9,30.03,North,360,0.0,0.0,91,0.00,,,0.00,Wunderground v.1.15,2013-01-27 08:15:00,
2013-01-27 00:20:00,30.3,28.0,30.03,North,360,0.0,0.0,91,0.00,,,0.00,Wunderground v.1.15,2013-01-27 08:20:00,
2013-01-27 00:21:00,30.5,28.2,30.03,North,360,0.0,0.0,91,0.00,,,0.00,Wunderground v.1.15,2013-01-27 08:21:00,
2013-01-27 00:22:00,30.5,28.2,30.03,North,360,0.0,0.0,91,0.00,,,0.00,Wunderground v.1.15,2013-01-27 08:22:00,
2013-01-27 00:23:00,30.6,28.6,30.03,North,360,0.0,0.0,92,0.00,,,0.00,Wunderground v.1.15,2013-01-27 08:23:00,
2013-01-27 00:26:00,30.6,28.3,30.02,North,360,0.0,0.0,91,0.00,,,0.00,Wunderground v.1.15,2013-01-27 08:26:00,
2013-01-27 00:28:00,30.5,27.9,30.02,North,360,0.0,0.0,90,0.00,,,0.00,Wunderground v.1.15,2013-01-27 08:28:00,
2013-01-27 00:30:00,30.3,27.7,30.02,North,360,0.0,0.0,90,0.00,,,0.00,Wunderground v.1.15,2013-01-27 08:30:00,
2013-01-27 00:35:00,30.1,27.5,30.02,North,360,0.0,0.0,90,0.00,,,0.00,Wunderground v.1.15,2013-01-27 08:35:00,
2013-01-27 00:36:00,30.0,27.7,30.02,North,360,0.0,0.0,91,0.00,,,0.00,Wunderground v.1.15,2013-01-27 08:36:00,
2013-01-27 00:41:00,30.0,27.7,30.02,North,360,0.0,1.0,91,0.00,,,0.00,Wunderground v.1.15,2013-01-27 08:41:00,
2013-01-27 00:42:00,30.0,27.7,30.02,North,360,0.0,1.0,91,0.00,,,0.00,Wunderground v.1.15,2013-01-27 08:42:00,
2013-01-27 00:43:00,30.0,27.7,30.02,North,360,0.0,0.0,91,0.00,,,0.00,Wunderground v.1.15,2013-01-27 08:43:00,
2013-01-27 00:49:00,29.8,27.5,30.02,North,360,1.0,3.0,91,0.00,,,0.00,Wunderground v.1.15,2013-01-27 08:49:00,
2013-01-27 00:51:00,29.7,27.4,30.02,North,360,1.0,3.0,91,0.00,,,0.00,Wunderground v.1.15,2013-01-27 08:51:00,
2013-01-27 00:52:00,29.7,27.4,30.02,North,360,2.0,3.0,91,0.00,,,0.00,Wunderground v.1.15,2013-01-27 08:52:00,
2013-01-27 00:55:00,29.6,27.3,30.02,North,360,2.0,2.0,91,0.00,,,0.00,Wunderground v.1.15,2013-01-27 08:55:00,
2013-01-27 00:56:00,29.5,27.2,30.02,North,360,0.0,2.0,91,0.00,,,0.00,Wunderground v.1.15,2013-01-27 08:56:00,
2013-01-27 01:00:00,29.5,27.2,30.02,North,360,0.0,2.0,91,0.00,,,0.00,Wunderground v.1.15,2013-01-27 09:00:00,
2013-01-27 01:01:00,29.5,27.2,30.02,North,360,0.0,2.0,91,0.00,,,0.00,Wunderground v.1.15,2013-01-27 09:01:00,
2013-01-27 01:02:00,29.5,27.2,30.02,North,360,0.0,2.0,91,0.00,,,0.00,Wunderground v.1.15,2013-01-27 09:02:00,
2013-01-27 01:03:00,29.5,27.2,30.02,North,360,0.0,1.0,91,0.00,,,0.00,Wunderground v.1.15,2013-01-27 09:03:00,
2013-01-27 01:07:00,29.6,27.3,30.02,North,360,0.0,1.0,91,0.00,,,0.00,Wunderground v.1.15,2013-01-27 09:07:00,
2013-01-27 01:10:00,29.6,27.6,30.02,North,360,0.0,1.0,92,0.00,,,0.00,Wunderground v.1.15,2013-01-27 09:10:00,
2013-01-27 01:12:00,29.6,27.3,30.02,North,360,2.0,2.0,91,0.00,,,0.00,Wunderground v.1.15,2013-01-27 09:12:00,
2013-01-27 01:16:00,29.6,27.3,30.02,North,360,0.0,1.0,91,0.00,,,0.00,Wunderground v.1.15,2013-01-27 09:16:00,
2013-01-27 01:17:00,29.6,27.3,30.02,North,360,0.0,1.0,91,0.00,,,0.00,Wunderground v.1.15,2013-01-27 09:17:00,
2013-01-27 01:19:00,29.6,27.3,30.02,North,360,0.0,1.0,91,0.00,,,0.00,Wunderground v.1.15,2013-01-27 09:19:00,
2013-01-27 01:21:00,29.7,27.7,30.02,North,360,3.0,3.0,92,0.00,,,0.00,Wunderground v.1.15,2013-01-27 09:21:00,
2013-01-27 01:23:00,29.6,27.3,30.02,North,360,1.0,1.0,91,0.00,,,0.00,Wunderground v.1.15,2013-01-27 09:23:00,
2013-01-27 01:24:00,29.6,27.3,30.02,North,360,0.0,1.0,91,0.00,,,0.00,Wunderground v.1.15,2013-01-27 09:24:00,
2013-01-27 01:29:00,29.5,27.2,30.02,North,360,1.0,2.0,91,0.00,,,0.00,Wunderground v.1.15,2013-01-27 09:29:00,
2013-01-27 01:30:00,29.5,27.2,30.02,North,360,1.0,2.0,91,0.00,,,0.00,Wunderground v.1.15,2013-01-27 09:30:00,
2013-01-27 01:31:00,29.4,27.1,30.02,North,360,0.0,2.0,91,0.00,,,0.00,Wunderground v.1.15,2013-01-27 09:31:00,
2013-01-27 01:36:00,29.4,27.1,30.02,North,360,0.0,1.0,91,0.00,,,0.00,Wunderground v.1.15,2013-01-27 09:36:00,
2013-01-27 01:37:00,29.4,27.1,30.02,North,360,0.0,1.0,91,0.00,,,0.00,Wunderground v.1.15,2013-01-27 09:37:00,
2013-01-27 01:39:00,29.4,27.1,30.02,North,360,1.0,1.0,91,0.00,,,0.00,Wunderground v.1.15,2013-01-27 09:39:00,
2013-01-27 01:42:00,29.4,27.4,30.02,North,360,0.0,1.0,92,0.00,,,0.00,Wunderground v.1.15,2013-01-27 09:42:00,
2013-01-27 01:44:00,29.4,27.4,30.02,North,360,0.0,0.0,92,0.00,,,0.00,Wunderground v.1.15,2013-01-27 09:44:00,
2013-01-27 01:45:00,29.4,27.4,30.02,North,360,0.0,0.0,92,0.00,,,0.00,Wunderground v.1.15,2013-01-27 09:45:00,
2013-01-27 01:47:00,29.4,27.1,30.02,North,360,1.0,1.0,91,0.00,,,0.00,Wunderground v.1.15,2013-01-27 09:47:00,
2013-01-27 01:51:00,29.3,27.0,30.02,North,360,0.0,3.0,91,0.00,,,0.00,Wunderground v.1.15,2013-01-27 09:51:00,
2013-01-27 01:52:00,29.3,27.0,30.02,North,360,1.0,3.0,91,0.00,,,0.00,Wunderground v.1.15,2013-01-27 09:52:00,
2013-01-27 01:53:00,29.3,27.3,30.02,North,360,0.0,1.0,92,0.00,,,0.00,Wunderground v.1.15,2013-01-27 09:53:00,
2013-01-27 01:54:00,29.4,27.4,30.02,North,360,1.0,1.0,92,0.00,,,0.00,Wunderground v.1.15,2013-01-27 09:54:00,
2013-01-27 01:59:00,29.4,27.4,30.03,North,360,1.0,3.0,92,0.00,,,0.00,Wunderground v.1.15,2013-01-27 09:59:00,
2013-01-27 02:04:00,29.2,26.9,30.03,North,360,0.0,2.0,91,0.00,,,0.00,Wunderground v.1.15,2013-01-27 10:04:00,
2013-01-27 02:09:00,29.0,27.0,30.02,North,360,0.0,2.0,92,0.00,,,0.00,Wunderground v.1.15,2013-01-27 10:09:00,
2013-01-27 02:14:00,29.0,27.0,30.02,North,360,3.0,4.0,92,0.00,,,0.00,Wunderground v.1.15,2013-01-27 10:14:00,
2013-01-27 02:19:00,28.9,26.9,30.02,North,360,1.0,4.0,92,0.00,,,0.00,Wunderground v.1.15,2013-01-27 10:19:00,
2013-01-27 02:24:00,28.9,26.9,30.03,North,360,2.0,2.0,92,0.00,,,0.00,Wunderground v.1.15,2013-01-27 10:24:00,
2013-01-27 02:29:00,28.9,26.9,30.03,North,360,0.0,3.0,92,0.00,,,0.00,Wunderground v.1.15,2013-01-27 10:29:00,
2013-01-27 02:34:00,28.9,26.9,30.03,North,360,3.0,4.0,92,0.00,,,0.00,Wunderground v.1.15,2013-01-27 10:34:00,
2013-01-27 02:39:00,28.8,26.8,30.02,North,360,1.0,4.0,92,0.00,,,0.00,Wunderground v.1.15,2013-01-27 10:39:00,
2013-01-27 02:44:00,28.8,26.8,30.03,North,360,1.0,2.0,92,0.00,,,0.00,Wunderground v.1.15,2013-01-27 10:44:00,
2013-01-27 02:50:00,28.7,26.7,30.03,North,360,0.0,3.0,92,0.00,,,0.00,Wunderground v.1.15,2013-01-27 10:50:00,
2013-01-27 02:55:00,28.8,27.0,30.03,North,360,2.0,2.0,93,0.00,,,0.00,Wunderground v.1.15,2013-01-27 10:55:00,
2013-01-27 03:00:00,28.7,26.7,30.03,North,360,2.0,3.0,92,0.00,,,0.00,Wunderground v.1.15,2013-01-27 11:00:00,
2013-01-27 03:05:00,28.6,26.8,30.03,North,360,0.0,2.0,93,0.00,,,0.00,Wunderground v.1.15,2013-01-27 11:05:00,
2013-01-27 03:10:00,28.7,26.9,30.03,North,360,0.0,2.0,93,0.00,,,0.00,Wunderground v.1.15,2013-01-27 11:10:00,
2013-01-27 03:15:00,28.6,26.8,30.03,North,360,0.0,2.0,93,0.00,,,0.00,Wunderground v.1.15,2013-01-27 11:15:00,
2013-01-27 03:20:00,28.7,26.9,30.03,North,360,0.0,2.0,93,0.00,,,0.00,Wunderground v.1.15,2013-01-27 11:20:00,
2013-01-27 03:25:00,28.6,26.8,30.03,North,360,1.0,1.0,93,0.00,,,0.00,Wunderground v.1.15,2013-01-27 11:25:00,
2013-01-27 03:30:00,28.5,26.7,30.03,North,360,0.0,2.0,93,0.00,,,0.00,Wunderground v.1.15,2013-01-27 11:30:00,
2013-01-27 03:35:00,28.5,26.7,30.03,North,360,0.0,2.0,93,0.00,,,0.00,Wunderground v.1.15,2013-01-27 11:35:00,
2013-01-27 03:40:00,28.6,26.8,30.03,North,360,0.0,2.0,93,0.00,,,0.00,Wunderground v.1.15,2013-01-27 11:40:00,
2013-01-27 03:45:00,28.7,26.9,30.03,North,360,0.0,0.0,93,0.00,,,0.00,Wunderground v.1.15,2013-01-27 11:45:00,
2013-01-27 03:50:00,28.7,26.9,30.02,North,360,0.0,1.0,93,0.00,,,0.00,Wunderground v.1.15,2013-01-27 11:50:00,
2013-01-27 03:54:00,28.8,27.0,30.02,North,360,1.0,1.0,93,0.00,,,0.00,Wunderground v.1.15,2013-01-27 11:54:00,
2013-01-27 03:59:00,28.9,27.1,30.02,North,360,0.0,1.0,93,0.00,,,0.00,Wunderground v.1.15,2013-01-27 11:59:00,
2013-01-27 04:04:00,28.8,27.0,30.02,North,360,1.0,2.0,93,0.00,,,0.00,Wunderground v.1.15,2013-01-27 12:04:00,
2013-01-27 04:09:00,28.7,26.9,30.02,North,360,1.0,2.0,93,0.00,,,0.00,Wunderground v.1.15,2013-01-27 12:09:00,
2013-01-27 04:14:00,28.7,26.9,30.02,North,360,0.0,0.0,93,0.00,,,0.00,Wunderground v.1.15,2013-01-27 12:14:00,
2013-01-27 04:19:00,28.8,27.0,30.03,North,360,0.0,0.0,93,0.00,,,0.00,Wunderground v.1.15,2013-01-27 12:19:00,
2013-01-27 04:24:00,28.8,27.0,30.03,North,360,0.0,0.0,93,0.00,,,0.00,Wunderground v.1.15,2013-01-27 12:24:00,
2013-01-27 04:29:00,28.8,27.0,30.03,North,360,0.0,0.0,93,0.00,,,0.00,Wunderground v.1.15,2013-01-27 12:29:00,
2013-01-27 04:34:00,28.8,27.0,30.03,North,360,0.0,0.0,93,0.00,,,0.00,Wunderground v.1.15,2013-01-27 12:34:00,
2013-01-27 04:39:00,28.9,27.1,30.03,North,360,0.0,0.0,93,0.00,,,0.00,Wunderground v.1.15,2013-01-27 12:39:00,
2013-01-27 04:44:00,29.0,27.2,30.03,North,360,0.0,0.0,93,0.00,,,0.00,Wunderground v.1.15,2013-01-27 12:44:00,
2013-01-27 04:49:00,29.0,27.2,30.03,North,360,0.0,1.0,93,0.00,,,0.00,Wunderground v.1.15,2013-01-27 12:49:00,
2013-01-27 04:54:00,29.1,27.3,30.03,North,360,0.0,0.0,93,0.00,,,0.00,Wunderground v.1.15,2013-01-27 12:54:00,
2013-01-27 04:59:00,28.9,27.1,30.02,North,360,0.0,0.0,93,0.00,,,0.00,Wunderground v.1.15,2013-01-27 12:59:00,
2013-01-27 05:04:00,28.8,27.0,30.03,North,360,0.0,0.0,93,0.00,,,0.00,Wunderground v.1.15,2013-01-27 13:04:00,
2013-01-27 05:09:00,28.7,26.9,30.02,North,360,0.0,0.0,93,0.00,,,0.00,Wunderground v.1.15,2013-01-27 13:09:00,
2013-01-27 05:14:00,28.8,27.0,30.03,North,360,0.0,0.0,93,0.00,,,0.00,Wunderground v.1.15,2013-01-27 13:14:00,
2013-01-27 05:19:00,29.2,27.7,30.03,North,360,0.0,0.0,94,0.00,,,0.00,Wunderground v.1.15,2013-01-27 13:19:00,
2013-01-27 05:24:00,29.3,27.5,30.03,North,360,0.0,0.0,93,0.00,,,0.00,Wunderground v.1.15,2013-01-27 13:24:00,
2013-01-27 05:29:00,29.3,27.5,30.03,North,360,0.0,0.0,93,0.00,,,0.00,Wunderground v.1.15,2013-01-27 13:29:00,
2013-01-27 05:34:00,29.2,27.4,30.03,North,360,0.0,2.0,93,0.00,,,0.00,Wunderground v.1.15,2013-01-27 13:34:00,
2013-01-27 05:39:00,29.0,27.2,30.03,North,360,0.0,2.0,93,0.00,,,0.00,Wunderground v.1.15,2013-01-27 13:39:00,
2013-01-27 05:44:00,28.9,27.1,30.03,North,360,1.0,1.0,93,0.00,,,0.00,Wunderground v.1.15,2013-01-27 13:44:00,
2013-01-27 05:49:00,28.9,27.1,30.03,North,360,0.0,1.0,93,0.00,,,0.00,Wunderground v.1.15,2013-01-27 13:49:00,
2013-01-27 05:54:00,28.9,27.1,30.03,North,360,0.0,0.0,93,0.00,,,0.00,Wunderground v.1.15,2013-01-27 13:54:00,
2013-01-27 05:59:00,28.9,27.1,30.03,North,360,0.0,1.0,93,0.00,,,0.00,Wunderground v.1.15,2013-01-27 13:59:00,
2013-01-27 06:04:00,29.0,27.2,30.03,North,360,0.0,0.0,93,0.00,,,0.00,Wunderground v.1.15,2013-01-27 14:04:00,
2013-01-27 06:09:00,28.9,27.1,30.03,North,360,0.0,0.0,93,0.00,,,0.00,Wunderground v.1.15,2013-01-27 14:09:00,
2013-01-27 06:14:00,29.2,27.7,30.03,North,360,0.0,0.0,94,0.00,,,0.00,Wunderground v.1.15,2013-01-27 14:14:00,
2013-01-27 06:19:00,29.3,27.8,30.03,North,360,0.0,0.0,94,0.00,,,0.00,Wunderground v.1.15,2013-01-27 14:19:00,
2013-01-27 06:24:00,29.2,27.4,30.03,North,360,1.0,2.0,93,0.00,,,0.00,Wunderground v.1.15,2013-01-27 14:24:00,
2013-01-27 06:29:00,29.0,27.2,30.03,North,360,0.0,2.0,93,0.00,,,0.00,Wunderground v.1.15,2013-01-27 14:29:00,
2013-01-27 06:34:00,28.8,27.0,30.04,North,360,2.0,3.0,93,0.00,,,0.00,Wunderground v.1.15,2013-01-27 14:34:00,
2013-01-27 06:39:00,28.8,27.0,30.04,North,360,0.0,4.0,93,0.00,,,0.00,Wunderground v.1.15,2013-01-27 14:39:00,
2013-01-27 06:44:00,28.8,27.0,30.04,North,360,0.0,1.0,93,0.00,,,0.00,Wunderground v.1.15,2013-01-27 14:44:00,
2013-01-27 06:49:00,28.9,27.4,30.04,North,360,0.0,2.0,94,0.00,,,0.00,Wunderground v.1.15,2013-01-27 14:49:00,
2013-01-27 06:54:00,29.2,27.7,30.04,North,360,0.0,0.0,94,0.00,,,0.00,Wunderground v.1.15,2013-01-27 14:54:00,
2013-01-27 06:59:00,29.2,27.7,30.04,North,360,0.0,0.0,94,0.00,,,0.00,Wunderground v.1.15,2013-01-27 14:59:00,
2013-01-27 07:04:00,29.6,28.1,30.04,North,360,0.0,0.0,94,0.00,,,0.00,Wunderground v.1.15,2013-01-27 15:04:00,
2013-01-27 07:09:00,29.5,28.0,30.03,North,360,0.0,1.0,94,0.00,,,0.00,Wunderground v.1.15,2013-01-27 15:09:00,
2013-01-27 07:14:00,29.5,28.0,30.04,North,360,0.0,0.0,94,0.00,,,0.00,Wunderground v.1.15,2013-01-27 15:14:00,
2013-01-27 07:19:00,29.4,27.9,30.04,North,360,0.0,0.0,94,0.00,,,0.00,Wunderground v.1.15,2013-01-27 15:19:00,
2013-01-27 07:24:00,29.3,27.5,30.03,North,360,0.0,0.0,93,0.00,,,0.00,Wunderground v.1.15,2013-01-27 15:24:00,
2013-01-27 07:29:00,29.2,27.4,30.04,North,360,0.0,2.0,93,0.00,,,0.00,Wunderground v.1.15,2013-01-27 15:29:00,
2013-01-27 07:34:00,28.9,27.4,30.04,North,360,2.0,3.0,94,0.00,,,0.00,Wunderground v.1.15,2013-01-27 15:34:00,
2013-01-27 07:39:00,28.8,27.0,30.04,North,360,1.0,3.0,93,0.00,,,0.00,Wunderground v.1.15,2013-01-27 15:39:00,
2013-01-27 07:44:00,28.8,27.3,30.05,North,360,0.0,1.0,94,0.00,,,0.00,Wunderground v.1.15,2013-01-27 15:44:00,
2013-01-27 07:49:00,28.9,27.4,30.04,North,360,0.0,1.0,94,0.00,,,0.00,Wunderground v.1.15,2013-01-27 15:49:00,
2013-01-27 07:54:00,28.8,27.3,30.04,North,360,0.0,2.0,94,0.00,,,0.00,Wunderground v.1.15,2013-01-27 15:54:00,
2013-01-27 07:59:00,28.8,27.3,30.04,North,360,0.0,3.0,94,0.00,,,0.00,Wunderground v.1.15,2013-01-27 15:59:00,
2013-01-27 08:04:00,28.8,27.3,30.04,North,360,0.0,1.0,94,0.00,,,0.00,Wunderground v.1.15,2013-01-27 16:04:00,
2013-01-27 08:09:00,28.8,27.3,30.04,North,360,0.0,1.0,94,0.00,,,0.00,Wunderground v.1.15,2013-01-27 16:09:00,
2013-01-27 08:14:00,29.0,27.5,30.04,North,360,2.0,2.0,94,0.00,,,0.00,Wunderground v.1.15,2013-01-27 16:14:00,
2013-01-27 08:19:00,29.0,27.5,30.04,North,360,0.0,3.0,94,0.00,,,0.00,Wunderground v.1.15,2013-01-27 16:19:00,
2013-01-27 08:24:00,29.0,27.5,30.04,North,360,0.0,0.0,94,0.00,,,0.00,Wunderground v.1.15,2013-01-27 16:24:00,
2013-01-27 08:29:00,29.2,27.7,30.05,North,360,0.0,0.0,94,0.00,,,0.00,Wunderground v.1.15,2013-01-27 16:29:00,
2013-01-27 08:34:00,29.2,27.7,30.05,North,360,0.0,0.0,94,0.00,,,0.00,Wunderground v.1.15,2013-01-27 16:34:00,
2013-01-27 08:39:00,29.2,27.7,30.05,North,360,0.0,2.0,94,0.00,,,0.00,Wunderground v.1.15,2013-01-27 16:39:00,
2013-01-27 08:44:00,29.0,27.5,30.05,North,360,0.0,0.0,94,0.00,,,0.00,Wunderground v.1.15,2013-01-27 16:44:00,
2013-01-27 08:49:00,29.1,27.6,30.06,North,360,0.0,0.0,94,0.00,,,0.00,Wunderground v.1.15,2013-01-27 16:49:00,
2013-01-27 08:54:00,29.4,27.9,30.05,North,360,0.0,0.0,94,0.00,,,0.00,Wunderground v.1.15,2013-01-27 16:54:00,
2013-01-27 08:59:00,29.4,27.9,30.05,North,360,0.0,0.0,94,0.00,,,0.00,Wunderground v.1.15,2013-01-27 16:59:00,
2013-01-27 09:04:00,29.3,27.8,30.05,North,360,1.0,3.0,94,0.00,,,0.00,Wunderground v.1.15,2013-01-27 17:04:00,
2013-01-27 09:09:00,29.1,27.6,30.05,North,360,0.0,3.0,94,0.00,,,0.00,Wunderground v.1.15,2013-01-27 17:09:00,
2013-01-27 09:14:00,29.0,27.5,30.05,North,360,0.0,1.0,94,0.00,,,0.00,Wunderground v.1.15,2013-01-27 17:14:00,
2013-01-27 09:19:00,29.0,27.5,30.05,North,360,3.0,3.0,94,0.00,,,0.00,Wunderground v.1.15,2013-01-27 17:19:00,
2013-01-27 09:24:00,28.9,27.4,30.05,North,360,2.0,2.0,94,0.00,,,0.00,Wunderground v.1.15,2013-01-27 17:24:00,
2013-01-27 09:29:00,28.8,27.3,30.05,North,360,0.0,2.0,94,0.00,,,0.00,Wunderground v.1.15,2013-01-27 17:29:00,
2013-01-27 09:34:00,28.9,27.4,30.05,North,360,0.0,1.0,94,0.00,,,0.00,Wunderground v.1.15,2013-01-27 17:34:00,
2013-01-27 09:39:00,29.1,27.6,30.05,North,360,0.0,1.0,94,0.00,,,0.00,Wunderground v.1.15,2013-01-27 17:39:00,
2013-01-27 09:44:00,29.1,27.6,30.06,North,360,1.0,4.0,94,0.00,,,0.00,Wunderground v.1.15,2013-01-27 17:44:00,
2013-01-27 09:49:00,29.0,27.5,30.06,North,360,0.0,4.0,94,0.00,,,0.00,Wunderground v.1.15,2013-01-27 17:49:00,
2013-01-27 09:54:00,29.1,27.6,30.06,North,360,0.0,1.0,94,0.00,,,0.00,Wunderground v.1.15,2013-01-27 17:54:00,
2013-01-27 09:59:00,29.4,27.9,30.06,North,360,0.0,2.0,94,0.00,,,0.00,Wunderground v.1.15,2013-01-27 17:59:00,
2013-01-27 10:04:00,29.7,28.4,30.06,North,360,0.0,0.0,95,0.00,,,0.00,Wunderground v.1.15,2013-01-27 18:04:00,
2013-01-27 10:09:00,29.6,28.1,30.06,North,360,2.0,4.0,94,0.00,,,0.00,Wunderground v.1.15,2013-01-27 18:09:00,
2013-01-27 10:14:00,29.4,27.9,30.06,North,360,0.0,1.0,94,0.00,,,0.00,Wunderground v.1.15,2013-01-27 18:14:00,
2013-01-27 10:19:00,29.5,28.0,30.06,North,360,3.0,4.0,94,0.00,,,0.00,Wunderground v.1.15,2013-01-27 18:19:00,
2013-01-27 10:24:00,29.4,27.9,30.06,North,360,3.0,4.0,94,0.00,,,0.00,Wunderground v.1.15,2013-01-27 18:24:00,
2013-01-27 10:29:00,29.3,27.8,30.06,North,360,2.0,4.0,94,0.00,,,0.00,Wunderground v.1.15,2013-01-27 18:29:00,
2013-01-27 10:34:00,29.2,27.7,30.06,North,360,3.0,3.0,94,0.00,,,0.00,Wunderground v.1.15,2013-01-27 18:34:00,
2013-01-27 10:39:00,29.4,27.9,30.06,North,360,2.0,5.0,94,0.00,,,0.00,Wunderground v.1.15,2013-01-27 18:39:00,
2013-01-27 10:44:00,29.6,28.1,30.06,North,360,1.0,2.0,94,0.00,,,0.00,Wunderground v.1.15,2013-01-27 18:44:00,
2013-01-27 10:49:00,29.5,28.0,30.06,North,360,2.0,7.0,94,0.00,,,0.00,Wunderground v.1.15,2013-01-27 18:49:00,
2013-01-27 10:54:00,29.5,28.0,30.06,North,360,4.0,4.0,94,0.00,,,0.00,Wunderground v.1.15,2013-01-27 18:54:00,
2013-01-27 10:59:00,29.6,28.1,30.06,North,360,0.0,4.0,94,0.00,,,0.00,Wunderground v.1.15,2013-01-27 18:59:00,
2013-01-27 11:04:00,29.7,28.2,30.06,North,360,0.0,2.0,94,0.00,,,0.00,Wunderground v.1.15,2013-01-27 19:04:00,
2013-01-27 11:09:00,29.7,28.2,30.06,North,360,0.0,3.0,94,0.00,,,0.00,Wunderground v.1.15,2013-01-27 19:09:00,
2013-01-27 11:14:00,29.9,28.4,30.06,North,360,0.0,0.0,94,0.00,,,0.00,Wunderground v.1.15,2013-01-27 19:14:00,
2013-01-27 11:19:00,29.9,28.4,30.06,North,360,4.0,5.0,94,0.00,,,0.00,Wunderground v.1.15,2013-01-27 19:19:00,
2013-01-27 11:24:00,29.7,28.2,30.06,North,360,0.0,2.0,94,0.00,,,0.00,Wunderground v.1.15,2013-01-27 19:24:00,
2013-01-27 11:29:00,29.7,28.2,30.06,North,360,0.0,3.0,94,0.00,,,0.00,Wunderground v.1.15,2013-01-27 19:29:00,
2013-01-27 11:34:00,29.8,28.3,30.05,North,360,4.0,4.0,94,0.00,,,0.00,Wunderground v.1.15,2013-01-27 19:34:00,
2013-01-27 11:39:00,29.8,28.3,30.05,North,360,4.0,4.0,94,0.00,,,0.00,Wunderground v.1.15,2013-01-27 19:39:00,
2013-01-27 11:44:00,29.9,28.4,30.05,North,360,3.0,5.0,94,0.00,,,0.00,Wunderground v.1.15,2013-01-27 19:44:00,
2013-01-27 11:49:00,29.9,28.4,30.05,North,360,0.0,5.0,94,0.00,,,0.00,Wunderground v.1.15,2013-01-27 19:49:00,
2013-01-27 11:54:00,29.9,28.4,30.05,North,360,0.0,1.0,94,0.00,,,0.00,Wunderground v.1.15,2013-01-27 19:54:00,
2013-01-27 11:59:00,30.0,28.5,30.05,North,360,0.0,3.0,94,0.00,,,0.00,Wunderground v.1.15,2013-01-27 19:59:00,
2013-01-27 12:04:00,30.3,28.8,30.05,North,360,0.0,0.0,94,0.00,,,0.00,Wunderground v.1.15,2013-01-27 20:04:00,
2013-01-27 12:09:00,30.3,28.8,30.04,North,360,0.0,1.0,94,0.00,,,0.00,Wunderground v.1.15,2013-01-27 20:09:00,
2013-01-27 12:14:00,30.3,28.8,30.04,North,360,2.0,3.0,94,0.00,,,0.00,Wunderground v.1.15,2013-01-27 20:14:00,
2013-01-27 12:19:00,30.0,28.5,30.04,North,360,3.0,5.0,94,0.00,,,0.00,Wunderground v.1.15,2013-01-27 20:19:00,
2013-01-27 12:24:00,29.8,28.0,30.04,North,360,2.0,3.0,93,0.00,,,0.00,Wunderground v.1.15,2013-01-27 20:24:00,
2013-01-27 12:29:00,29.7,28.2,30.04,North,360,0.0,4.0,94,0.00,,,0.00,Wunderground v.1.15,2013-01-27 20:29:00,
2013-01-27 12:34:00,29.9,28.4,30.04,North,360,0.0,1.0,94,0.00,,,0.00,Wunderground v.1.15,2013-01-27 20:34:00,
2013-01-27 12:39:00,30.0,28.5,30.03,North,360,1.0,3.0,94,0.00,,,0.00,Wunderground v.1.15,2013-01-27 20:39:00,
2013-01-27 12:44:00,30.0,28.5,30.03,North,360,0.0,0.0,94,0.00,,,0.00,Wunderground v.1.15,2013-01-27 20:44:00,
2013-01-27 12:49:00,30.3,28.8,30.03,North,360,1.0,3.0,94,0.00,,,0.00,Wunderground v.1.15,2013-01-27 20:49:00,
2013-01-27 12:54:00,30.2,28.7,30.03,North,360,1.0,2.0,94,0.00,,,0.00,Wunderground v.1.15,2013-01-27 20:54:00,
2013-01-27 12:59:00,30.1,28.6,30.03,North,360,1.0,4.0,94,0.00,,,0.00,Wunderground v.1.15,2013-01-27 20:59:00,
2013-01-27 13:04:00,30.0,28.5,30.02,North,360,0.0,1.0,94,0.00,,,0.00,Wunderground v.1.15,2013-01-27 21:04:00,
2013-01-27 13:09:00,29.9,28.4,30.02,North,360,0.0,5.0,94,0.00,,,0.00,Wunderground v.1.15,2013-01-27 21:09:00,
2013-01-27 13:14:00,29.9,28.4,30.02,North,360,1.0,2.0,94,0.00,,,0.00,Wunderground v.1.15,2013-01-27 21:14:00,
2013-01-27 13:19:00,30.1,28.6,30.02,North,360,0.0,3.0,94,0.00,,,0.00,Wunderground v.1.15,2013-01-27 21:19:00,
2013-01-27 13:24:00,30.3,28.8,30.02,North,360,2.0,3.0,94,0.00,,,0.00,Wunderground v.1.15,2013-01-27 21:24:00,
2013-01-27 13:29:00,30.2,28.7,30.01,North,360,0.0,3.0,94,0.00,,,0.00,Wunderground v.1.15,2013-01-27 21:29:00,
2013-01-27 13:34:00,30.1,28.6,30.01,North,360,4.0,5.0,94,0.00,,,0.00,Wunderground v.1.15,2013-01-27 21:34:00,
2013-01-27 13:39:00,30.0,28.5,30.01,North,360,4.0,5.0,94,0.00,,,0.00,Wunderground v.1.15,2013-01-27 21:39:00,
2013-01-27 13:44:00,30.0,28.5,30.01,North,360,4.0,4.0,94,0.00,,,0.00,Wunderground v.1.15,2013-01-27 21:44:00,
2013-01-27 13:49:00,30.0,28.5,30.02,North,360,1.0,6.0,94,0.00,,,0.00,Wunderground v.1.15,2013-01-27 21:49:00,
2013-01-27 13:54:00,29.9,28.4,30.01,North,360,3.0,3.0,94,0.00,,,0.00,Wunderground v.1.15,2013-01-27 21:54:00,
2013-01-27 13:59:00,30.0,28.5,30.01,North,360,0.0,5.0,94,0.00,,,0.00,Wunderground v.1.15,2013-01-27 21:59:00,
2013-01-27 14:04:00,30.0,28.5,30.01,North,360,1.0,3.0,94,0.00,,,0.00,Wunderground v.1.15,2013-01-27 22:04:00,
2013-01-27 14:09:00,30.1,28.6,30.01,North,360,3.0,4.0,94,0.00,,,0.00,Wunderground v.1.15,2013-01-27 22:09:00,
2013-01-27 14:14:00,30.1,28.6,30.01,North,360,2.0,3.0,94,0.00,,,0.00,Wunderground v.1.15,2013-01-27 22:14:00,
2013-01-27 14:19:00,30.1,28.6,30.01,North,360,2.0,4.0,94,0.00,,,0.00,Wunderground v.1.15,2013-01-27 22:19:00,
2013-01-27 14:24:00,30.2,28.7,30.02,North,360,2.0,4.0,94,0.00,,,0.00,Wunderground v.1.15,2013-01-27 22:24:00,
2013-01-27 14:29:00,30.3,28.8,30.01,North,360,0.0,4.0,94,0.00,,,0.00,Wunderground v.1.15,2013-01-27 22:29:00,
2013-01-27 14:34:00,30.2,28.7,30.01,North,360,3.0,5.0,94,0.00,,,0.00,Wunderground v.1.15,2013-01-27 22:34:00,
2013-01-27 14:39:00,30.1,28.6,30.01,North,360,4.0,5.0,94,0.00,,,0.00,Wunderground v.1.15,2013-01-27 22:39:00,
2013-01-27 14:44:00,30.1,28.6,30.01,North,360,3.0,5.0,94,0.00,,,0.00,Wunderground v.1.15,2013-01-27 22:44:00,
2013-01-27 14:49:00,30.0,28.5,30.01,North,360,4.0,5.0,94,0.00,,,0.00,Wunderground v.1.15,2013-01-27 22:49:00,
2013-01-27 14:54:00,30.0,28.5,30.01,North,360,3.0,4.0,94,0.00,,,0.00,Wunderground v.1.15,2013-01-27 22:54:00,
2013-01-27 14:59:00,30.0,28.5,30.01,North,360,2.0,5.0,94,0.00,,,0.00,Wunderground v.1.15,2013-01-27 22:59:00,
2013-01-27 15:04:00,30.0,28.5,30.01,North,360,0.0,2.0,94,0.00,,,0.00,Wunderground v.1.15,2013-01-27 23:04:00,
2013-01-27 15:09:00,30.1,28.6,30.01,North,360,0.0,2.0,94,0.00,,,0.00,Wunderground v.1.15,2013-01-27 23:09:00,
2013-01-27 15:14:00,30.2,28.7,30.01,North,360,0.0,0.0,94,0.00,,,0.00,Wunderground v.1.15,2013-01-27 23:14:00,
2013-01-27 15:19:00,30.2,28.7,30.01,North,360,2.0,4.0,94,0.00,,,0.00,Wunderground v.1.15,2013-01-27 23:19:00,
2013-01-27 15:24:00,30.1,28.6,30.01,North,360,2.0,3.0,94,0.00,,,0.00,Wunderground v.1.15,2013-01-27 23:24:00,
2013-01-27 15:29:00,30.1,28.6,30.01,North,360,0.0,3.0,94,0.00,,,0.00,Wunderground v.1.15,2013-01-27 23:29:00,
2013-01-27 15:34:00,30.2,28.7,30.01,North,360,1.0,4.0,94,0.00,,,0.00,Wunderground v.1.15,2013-01-27 23:34:00,
2013-01-27 15:39:00,30.1,28.6,30.01,North,360,3.0,4.0,94,0.00,,,0.00,Wunderground v.1.15,2013-01-27 23:39:00,
2013-01-27 15:44:00,30.0,28.5,30.01,North,360,1.0,2.0,94,0.00,,,0.00,Wunderground v.1.15,2013-01-27 23:44:00,
2013-01-27 15:49:00,30.0,28.5,30.01,North,360,0.0,2.0,94,0.00,,,0.00,Wunderground v.1.15,2013-01-27 23:49:00,
2013-01-27 15:54:00,30.1,28.6,30.01,North,360,2.0,2.0,94,0.00,,,0.00,Wunderground v.1.15,2013-01-27 23:54:00,
2013-01-27 15:59:00,30.1,28.6,30.01,North,360,2.0,3.0,94,0.00,,,0.00,Wunderground v.1.15,2013-01-27 23:59:00,
2013-01-27 16:04:00,30.0,28.2,30.01,North,360,1.0,1.0,93,0.00,,,0.00,Wunderground v.1.15,2013-01-28 00:04:00,
2013-01-27 16:09:00,30.1,28.3,30.01,North,360,0.0,2.0,93,0.00,,,0.00,Wunderground v.1.15,2013-01-28 00:09:00,
2013-01-27 16:14:00,30.2,28.7,30.01,North,360,3.0,3.0,94,0.00,,,0.00,Wunderground v.1.15,2013-01-28 00:14:00,
2013-01-27 16:19:00,30.1,28.6,30.01,North,360,2.0,3.0,94,0.00,,,0.00,Wunderground v.1.15,2013-01-28 00:19:00,
2013-01-27 16:24:00,30.1,28.6,30.01,North,360,1.0,2.0,94,0.00,,,0.00,Wunderground v.1.15,2013-01-28 00:24:00,
2013-01-27 16:29:00,30.2,28.4,30.01,North,360,2.0,2.0,93,0.00,,,0.00,Wunderground v.1.15,2013-01-28 00:29:00,
2013-01-27 16:34:00,30.1,28.3,30.01,North,360,2.0,3.0,93,0.00,,,0.00,Wunderground v.1.15,2013-01-28 00:34:00,
2013-01-27 16:39:00,30.1,28.3,30.01,North,360,1.0,3.0,93,0.00,,,0.00,Wunderground v.1.15,2013-01-28 00:39:00,
2013-01-27 16:44:00,30.1,28.3,30.01,North,360,0.0,2.0,93,0.00,,,0.00,Wunderground v.1.15,2013-01-28 00:44:00,
2013-01-27 16:49:00,30.2,28.4,30.01,North,360,0.0,3.0,93,0.00,,,0.00,Wunderground v.1.15,2013-01-28 00:49:00,
2013-01-27 16:54:00,30.2,28.4,30.01,North,360,0.0,2.0,93,0.00,,,0.00,Wunderground v.1.15,2013-01-28 00:54:00,
2013-01-27 16:59:00,30.2,28.4,30.01,North,360,0.0,2.0,93,0.00,,,0.00,Wunderground v.1.15,2013-01-28 00:59:00,
2013-01-27 17:04:00,30.2,28.4,30.00,North,360,3.0,3.0,93,0.00,,,0.00,Wunderground v.1.15,2013-01-28 01:04:00,
2013-01-27 17:09:00,30.2,28.4,30.00,North,360,1.0,4.0,93,0.00,,,0.00,Wunderground v.1.15,2013-01-28 01:09:00,
2013-01-27 17:14:00,30.2,28.4,30.00,North,360,3.0,4.0,93,0.00,,,0.00,Wunderground v.1.15,2013-01-28 01:14:00,
2013-01-27 17:19:00,30.2,28.4,30.00,North,360,0.0,4.0,93,0.00,,,0.00,Wunderground v.1.15,2013-01-28 01:19:00,
2013-01-27 17:24:00,30.2,28.4,30.00,North,360,1.0,3.0,93,0.00,,,0.00,Wunderground v.1.15,2013-01-28 01:24:00,
2013-01-27 17:29:00,30.2,28.4,30.00,North,360,1.0,4.0,93,0.00,,,0.00,Wunderground v.1.15,2013-01-28 01:29:00,
2013-01-27 17:34:00,30.2,28.4,30.00,North,360,3.0,4.0,93,0.00,,,0.00,Wunderground v.1.15,2013-01-28 01:34:00,
2013-01-27 17:39:00,30.2,28.4,30.00,North,360,3.0,5.0,93,0.00,,,0.00,Wunderground v.1.15,2013-01-28 01:39:00,
2013-01-27 17:44:00,30.2,28.4,30.00,North,360,4.0,4.0,93,0.00,,,0.00,Wunderground v.1.15,2013-01-28 01:44:00,
2013-01-27 17:49:00,30.2,28.4,30.00,North,360,3.0,5.0,93,0.00,,,0.00,Wunderground v.1.15,2013-01-28 01:49:00,
2013-01-27 17:54:00,30.1,28.3,30.00,North,360,3.0,4.0,93,0.00,,,0.00,Wunderground v.1.15,2013-01-28 01:54:00,
2013-01-27 17:59:00,30.1,28.3,30.00,North,360,4.0,4.0,93,0.00,,,0.00,Wunderground v.1.15,2013-01-28 01:59:00,
2013-01-27 18:00:00,30.1,28.3,30.00,North,360,3.0,4.0,93,0.00,,,0.00,Wunderground v.1.15,2013-01-28 02:00:00,
2013-01-27 18:05:00,30.1,28.3,30.00,North,360,3.0,4.0,93,0.00,,,0.00,Wunderground v.1.15,2013-01-28 02:05:00,
2013-01-27 18:10:00,30.1,28.3,30.00,North,360,4.0,5.0,93,0.00,,,0.00,Wunderground v.1.15,2013-01-28 02:10:00,
2013-01-27 18:15:00,30.1,28.3,30.00,North,360,3.0,4.0,93,0.00,,,0.00,Wunderground v.1.15,2013-01-28 02:15:00,
2013-01-27 18:20:00,30.1,28.3,30.00,North,360,4.0,5.0,93,0.00,,,0.00,Wunderground v.1.15,2013-01-28 02:20:00,
2013-01-27 18:25:00,30.1,28.3,30.00,North,360,5.0,5.0,93,0.00,,,0.00,Wunderground v.1.15,2013-01-28 02:25:00,
2013-01-27 18:30:00,30.1,28.3,30.00,North,360,5.0,5.0,93,0.00,,,0.00,Wunderground v.1.15,2013-01-28 02:30:00,
2013-01-27 18:35:00,30.2,28.4,30.00,North,360,3.0,4.0,93,0.00,,,0.00,Wunderground v.1.15,2013-01-28 02:35:00,
2013-01-27 18:40:00,30.1,28.3,30.00,North,360,4.0,5.0,93,0.00,,,0.00,Wunderground v.1.15,2013-01-28 02:40:00,
2013-01-27 18:45:00,30.2,28.4,30.00,North,360,3.0,4.0,93,0.00,,,0.00,Wunderground v.1.15,2013-01-28 02:45:00,
2013-01-27 18:50:00,30.2,28.4,30.00,North,360,3.0,4.0,93,0.00,,,0.00,Wunderground v.1.15,2013-01-28 02:50:00,
2013-01-27 18:55:00,30.2,28.4,30.00,North,360,3.0,4.0,93,0.00,,,0.00,Wunderground v.1.15,2013-01-28 02:55:00,
2013-01-27 19:00:00,30.2,28.4,29.99,North,360,4.0,4.0,93,0.00,,,0.00,Wunderground v.1.15,2013-01-28 03:00:00,
2013-01-27 19:05:00,30.3,28.5,29.99,North,360,3.0,5.0,93,0.00,,,0.00,Wunderground v.1.15,2013-01-28 03:05:00,
2013-01-27 19:10:00,30.3,28.5,30.00,North,360,4.0,5.0,93,0.00,,,0.00,Wunderground v.1.15,2013-01-28 03:10:00,
2013-01-27 19:15:00,30.3,28.5,29.99,North,360,5.0,5.0,93,0.00,,,0.00,Wunderground v.1.15,2013-01-28 03:15:00,
2013-01-27 19:20:00,30.3,28.5,29.99,North,360,4.0,5.0,93,0.00,,,0.00,Wunderground v.1.15,2013-01-28 03:20:00,
2013-01-27 19:25:00,30.4,28.6,29.99,North,360,4.0,5.0,93,0.00,,,0.00,Wunderground v.1.15,2013-01-28 03:25:00,
2013-01-27 19:30:00,30.4,28.6,29.99,North,360,3.0,5.0,93,0.00,,,0.00,Wunderground v.1.15,2013-01-28 03:30:00,
2013-01-27 19:36:00,30.5,28.7,29.99,North,360,2.0,4.0,93,0.00,,,0.00,Wunderground v.1.15,2013-01-28 03:36:00,
2013-01-27 19:41:00,30.5,28.7,29.99,North,360,3.0,4.0,93,0.00,,,0.00,Wunderground v.1.15,2013-01-28 03:41:00,
2013-01-27 19:46:00,30.5,28.7,29.99,North,360,4.0,4.0,93,0.00,,,0.00,Wunderground v.1.15,2013-01-28 03:46:00,
2013-01-27 19:51:00,30.5,29.0,29.99,North,360,3.0,4.0,94,0.00,,,0.00,Wunderground v.1.15,2013-01-28 03:51:00,
2013-01-27 19:56:00,30.5,28.7,29.99,North,360,4.0,4.0,93,0.00,,,0.00,Wunderground v.1.15,2013-01-28 03:56:00,
2013-01-27 20:01:00,30.6,29.1,29.99,North,360,1.0,4.0,94,0.00,,,0.00,Wunderground v.1.15,2013-01-28 04:01:00,
2013-01-27 20:06:00,30.6,29.1,29.99,North,360,1.0,2.0,94,0.00,,,0.00,Wunderground v.1.15,2013-01-28 04:06:00,
2013-01-27 20:11:00,30.7,29.2,29.99,North,360,0.0,2.0,94,0.00,,,0.00,Wunderground v.1.15,2013-01-28 04:11:00,
2013-01-27 20:16:00,30.7,29.2,29.99,North,360,0.0,0.0,94,0.00,,,0.00,Wunderground v.1.15,2013-01-28 04:16:00,
2013-01-27 20:21:00,30.9,29.4,29.99,North,360,0.0,0.0,94,0.00,,,0.00,Wunderground v.1.15,2013-01-28 04:21:00,
2013-01-27 20:26:00,31.3,29.8,29.99,North,360,0.0,0.0,94,0.00,,,0.00,Wunderground v.1.15,2013-01-28 04:26:00,
2013-01-27 20:31:00,31.7,30.2,29.99,North,360,0.0,0.0,94,0.00,,,0.00,Wunderground v.1.15,2013-01-28 04:31:00,
2013-01-27 20:36:00,31.8,30.3,29.99,North,360,0.0,0.0,94,0.00,,,0.00,Wunderground v.1.15,2013-01-28 04:36:00,
2013-01-27 20:41:00,31.7,29.9,29.99,North,360,0.0,0.0,93,0.00,,,0.00,Wunderground v.1.15,2013-01-28 04:41:00,
2013-01-27 20:45:00,31.5,29.7,29.99,North,360,0.0,0.0,93,0.00,,,0.00,Wunderground v.1.15,2013-01-28 04:45:00,
2013-01-27 20:50:00,31.5,29.7,29.99,North,360,0.0,0.0,93,0.00,,,0.00,Wunderground v.1.15,2013-01-28 04:50:00,
2013-01-27 20:55:00,31.4,29.6,29.99,North,360,0.0,0.0,93,0.00,,,0.00,Wunderground v.1.15,2013-01-28 04:55:00,
2013-01-27 21:00:00,31.2,29.4,29.99,North,360,2.0,2.0,93,0.00,,,0.00,Wunderground v.1.15,2013-01-28 05:00:00,
2013-01-27 21:01:00,31.2,29.4,29.99,North,360,0.0,2.0,93,0.00,,,0.00,Wunderground v.1.15,2013-01-28 05:01:00,
2013-01-27 21:06:00,31.1,29.3,29.99,North,360,0.0,0.0,93,0.00,,,0.00,Wunderground v.1.15,2013-01-28 05:06:00,
2013-01-27 21:11:00,31.0,29.2,29.99,North,360,1.0,2.0,93,0.00,,,0.00,Wunderground v.1.15,2013-01-28 05:11:00,
2013-01-27 21:15:00,31.0,29.2,29.99,North,360,0.0,2.0,93,0.00,,,0.00,Wunderground v.1.15,2013-01-28 05:15:00,
2013-01-27 21:20:00,31.0,29.2,29.99,North,360,0.0,2.0,93,0.00,,,0.00,Wunderground v.1.15,2013-01-28 05:20:00,
2013-01-27 21:25:00,31.0,29.2,29.99,North,360,0.0,0.0,93,0.00,,,0.00,Wunderground v.1.15,2013-01-28 05:25:00,
2013-01-27 21:30:00,31.1,29.3,29.99,North,360,0.0,0.0,93,0.00,,,0.00,Wunderground v.1.15,2013-01-28 05:30:00,
2013-01-27 21:35:00,31.1,29.3,29.99,North,360,0.0,0.0,93,0.00,,,0.00,Wunderground v.1.15,2013-01-28 05:35:00,
2013-01-27 21:40:00,31.3,29.8,29.99,North,360,0.0,0.0,94,0.00,,,0.00,Wunderground v.1.15,2013-01-28 05:40:00,
2013-01-27 21:45:00,31.2,29.4,29.99,North,360,0.0,0.0,93,0.00,,,0.00,Wunderground v.1.15,2013-01-28 05:45:00,
2013-01-27 21:50:00,31.3,29.5,29.99,North,360,0.0,0.0,93,0.00,,,0.00,Wunderground v.1.15,2013-01-28 05:50:00,
2013-01-27 21:55:00,31.4,29.6,29.99,North,360,0.0,0.0,93,0.00,,,0.00,Wunderground v.1.15,2013-01-28 05:55:00,
2013-01-27 22:00:00,31.3,29.5,29.98,North,360,0.0,0.0,93,0.00,,,0.00,Wunderground v.1.15,2013-01-28 06:00:00,
2013-01-27 22:05:00,31.4,29.9,29.98,North,360,0.0,0.0,94,0.00,,,0.00,Wunderground v.1.15,2013-01-28 06:05:00,
2013-01-27 22:10:00,31.4,29.6,29.98,North,360,0.0,0.0,93,0.00,,,0.00,Wunderground v.1.15,2013-01-28 06:10:00,
2013-01-27 22:15:00,31.2,29.4,29.98,North,360,0.0,0.0,93,0.00,,,0.00,Wunderground v.1.15,2013-01-28 06:15:00,
2013-01-27 22:20:00,31.1,29.3,29.98,North,360,0.0,0.0,93,0.00,,,0.00,Wunderground v.1.15,2013-01-28 06:20:00,
2013-01-27 22:25:00,31.3,29.8,29.98,North,360,0.0,2.0,94,0.00,,,0.00,Wunderground v.1.15,2013-01-28 06:25:00,
2013-01-27 22:30:00,31.3,29.5,29.98,North,360,0.0,2.0,93,0.00,,,0.00,Wunderground v.1.15,2013-01-28 06:30:00,
2013-01-27 22:35:00,31.1,29.3,29.98,North,360,0.0,0.0,93,0.00,,,0.00,Wunderground v.1.15,2013-01-28 06:35:00,
2013-01-27 22:40:00,31.1,29.3,29.98,North,360,0.0,1.0,93,0.00,,,0.00,Wunderground v.1.15,2013-01-28 06:40:00,
2013-01-27 22:45:00,31.2,29.7,29.98,North,360,0.0,0.0,94,0.00,,,0.00,Wunderground v.1.15,2013-01-28 06:45:00,
2013-01-27 22:50:00,31.1,29.3,29.98,North,360,0.0,0.0,93,0.00,,,0.00,Wunderground v.1.15,2013-01-28 06:50:00,
2013-01-27 22:55:00,31.0,29.2,29.98,North,360,0.0,0.0,93,0.00,,,0.00,Wunderground v.1.15,2013-01-28 06:55:00,
2013-01-27 23:00:00,30.8,29.0,29.98,North,360,0.0,0.0,93,0.00,,,0.00,Wunderground v.1.15,2013-01-28 07:00:00,
2013-01-27 23:05:00,30.7,28.9,29.98,North,360,0.0,0.0,93,0.00,,,0.00,Wunderground v.1.15,2013-01-28 07:05:00,
2013-01-27 23:10:00,30.7,28.9,29.98,North,360,0.0,0.0,93,0.00,,,0.00,Wunderground v.1.15,2013-01-28 07:10:00,
2013-01-27 23:15:00,30.7,28.9,29.98,North,360,0.0,0.0,93,0.00,,,0.00,Wunderground v.1.15,2013-01-28 07:15:00,
2013-01-27 23:20:00,30.8,29.3,29.98,North,360,0.0,0.0,94,0.00,,,0.00,Wunderground v.1.15,2013-01-28 07:20:00,
2013-01-27 23:25:00,30.8,29.3,29.98,North,360,0.0,0.0,94,0.00,,,0.00,Wunderground v.1.15,2013-01-28 07:25:00,
2013-01-27 23:30:00,30.8,29.3,29.98,North,360,0.0,0.0,94,0.00,,,0.00,Wunderground v.1.15,2013-01-28 07:30:00,
2013-01-27 23:35:00,31.1,29.6,29.98,North,360,0.0,0.0,94,0.00,,,0.00,Wunderground v.1.15,2013-01-28 07:35:00,
2013-01-27 23:40:00,31.5,30.0,29.98,North,360,0.0,0.0,94,0.00,,,0.00,Wunderground v.1.15,2013-01-28 07:40:00,
2013-01-27 23:45:00,31.2,29.7,29.98,North,360,0.0,0.0,94,0.00,,,0.00,Wunderground v.1.15,2013-01-28 07:45:00,
2013-01-27 23:50:00,31.0,29.2,29.98,North,360,0.0,0.0,93,0.00,,,0.00,Wunderground v.1.15,2013-01-28 07:50:00,
2013-01-27 23:55:00,31.1,29.3,29.98,North,360,1.0,1.0,93,0.00,,,0.00,Wunderground v.1.15,2013-01-28 07:55:00,
2013-01-27 23:56:00,31.1,29.3,29.98,North,360,2.0,2.0,93,0.00,,,0.00,Wunderground v.1.15,2013-01-28 07:56:00,
2013-01-27 23:59:00,30.9,29.1,29.98,North,360,2.0,2.0,93,0.00,,,0.00,Wunderground v.1.15,2013-01-28 07:59:00,